#timestamp,LO_Frequency,Hit,StdDev 
1601481615.0,286047002.6,N
1601481615.9,286047002.6,N
1601481635.8,286047001.7,N
1601481655.6,286047001.8,N
1601481675.4,286047004.1,N
1601481695.3,286047005.9,Y
1601481715.1,286047005.5,P
1601481735.8,286047001.8,N
1601481755.7,286047004.3,N
1601481775.5,286047001.5,N
1601481795.4,286047004.0,N
1601481815.2,286047002.0,N
1601481835.0,286047004.0,N
1601481835.9,286047004.0,N
1601481855.8,286047003.8,N
1601481875.6,286047004.7,Y
1601481895.5,286047003.3,P
1601481915.3,286047000.4,P
1601481935.1,286046997.6,N
1601481955.9,286046995.0,N
1601481975.7,286046998.2,N
1601481995.5,286046998.1,N
1601482015.4,286047002.0,N
1601482035.2,286047000.1,N
1601482055.1,286047001.0,N
1601482056.0,286047001.0,N
1601482075.8,286047002.2,N
1601482095.6,286047002.6,N
1601482115.5,286046998.6,N
1601482135.3,286046996.8,N
1601482155.1,286046996.6,N
1601482175.9,286046998.6,N
1601482195.7,286047000.0,N
1601482215.6,286047001.7,N
1601482235.4,286046999.9,N
1601482255.2,286046999.9,N
1601482275.1,286046999.8,N
1601482276.0,286046999.8,N
1601482295.8,286047000.6,N
1601482315.6,286047001.0,N
1601482335.5,286046997.1,N
1601482355.3,286046997.4,N
1601482375.2,286046995.4,N
1601482395.9,286046995.4,N
1601482415.7,286046994.7,N
1601482435.6,286046997.5,N
1601482455.4,286046996.3,N
1601482475.2,286046997.8,N
1601482495.1,286046995.4,N
1601482496.0,286046995.4,N
1601482515.8,286046995.8,N
1601482535.7,286046997.5,N
1601482555.5,286046995.2,N
1601482575.3,286046996.1,N
1601482595.2,286046993.7,N
1601482615.0,286046994.9,N
1601482615.9,286046994.9,N
1601482635.8,286046998.0,N
1601482655.6,286046998.9,N
1601482675.4,286046997.3,N
1601482695.3,286046995.8,N
1601482715.1,286046992.0,Y
1601482735.8,286046994.2,P
1601482755.7,286046992.1,P
1601482775.5,286046992.2,P
1601482795.4,286046990.3,Y
1601482815.2,286046998.9,P
1601482835.0,286047000.8,N
1601482835.9,286047000.8,N
1601482855.8,286047000.6,N
1601482875.6,286047002.3,N
1601482895.5,286047001.2,N
1601482915.3,286046999.2,N
1601482935.1,286046998.3,N
1601482955.9,286047002.7,N
1601482975.7,286047001.6,N
1601482995.5,286047000.3,N
1601483015.4,286047000.9,N
1601483035.2,286047002.7,N
1601483055.1,286047001.6,N
1601483056.0,286047001.6,N
1601483075.8,286047001.5,N
1601483095.6,286047003.9,N
1601483115.5,286047000.4,N
1601483135.3,286047001.0,N
1601483155.1,286046999.8,N
1601483175.9,286047005.7,N
1601483195.7,286047005.2,N
1601483215.6,286047005.8,N
1601483235.4,286047005.0,N
1601483255.2,286047005.1,N
1601483275.1,286047006.3,N
1601483276.0,286047006.3,N
1601483295.8,286047006.3,N
1601483315.7,286047005.3,N
1601483335.5,286047007.1,N
1601483355.3,286047006.4,N
1601483375.2,286047001.7,N
1601483395.0,286047000.8,N
1601483395.9,286047000.8,N
1601483415.7,286046999.9,N
1601483435.6,286047005.8,N
1601483455.4,286047002.7,N
1601483475.3,286047000.8,N
1601483495.1,286047002.3,N
1601483496.0,286047002.3,N
1601483515.8,286047005.9,N
1601483535.7,286047004.5,N
1601483555.5,286047002.2,N
1601483575.4,286047001.9,N
1601483595.2,286047006.9,N
1601483615.0,286047007.4,Y
1601483615.9,286047007.4,P
1601483635.8,286046999.7,N
1601483655.6,286047002.5,N
1601483675.4,286047003.1,N
1601483695.3,286046996.6,N
1601483715.1,286046998.0,N
1601483735.9,286046999.5,N
1601483755.7,286046998.0,N
1601483775.5,286046995.9,N
1601483795.4,286046995.0,N
1601483815.2,286046996.8,N
1601483835.1,286046997.6,N
1601483836.0,286046997.6,N
1601483855.8,286046999.1,N
1601483875.6,286046998.1,N
1601483895.5,286047000.8,N
1601483915.3,286047000.5,N
1601483935.1,286046997.1,N
1601483955.9,286046997.5,N
1601483975.7,286046995.4,N
1601483995.6,286046994.3,N
1601484015.4,286046993.4,N
1601484035.2,286046995.0,N
1601484055.1,286046997.1,N
1601484056.0,286046997.1,N
1601484075.8,286046994.9,N
1601484095.6,286046996.1,N
1601484115.5,286046997.9,N
1601484135.3,286046997.6,N
1601484155.2,286046995.4,N
1601484175.9,286046998.6,N
1601484195.7,286047000.6,N
1601484215.6,286047001.1,N
1601484235.4,286047002.3,N
1601484255.3,286046998.3,N
1601484275.1,286046999.1,N
1601484276.0,286046999.1,N
1601484295.8,286046997.9,N
1601484315.7,286046998.4,N
1601484335.5,286047001.0,N
1601484355.3,286047000.3,N
1601484375.2,286046998.4,N
1601484395.0,286046996.6,N
1601484395.9,286046996.6,N
1601484415.8,286046995.1,N
1601484435.6,286046997.4,N
1601484455.4,286046996.4,N
1601484475.3,286046993.8,N
1601484495.1,286046995.0,N
1601484515.8,286046999.3,N
1601484535.7,286046994.9,N
1601484555.5,286046995.3,N
1601484575.4,286046998.3,N
1601484595.2,286047000.1,N
1601484615.0,286046995.4,N
1601484615.9,286046995.4,N
1601484635.8,286047001.0,N
1601484655.6,286047000.1,N
1601484675.5,286047000.6,N
1601484695.3,286047001.9,N
1601484715.1,286047001.3,N
1601484735.9,286047000.9,N
1601484755.7,286047001.0,N
1601484775.5,286046999.2,N
1601484795.4,286047001.1,N
1601484815.2,286047001.7,N
1601484835.1,286047002.4,N
1601484836.0,286047002.4,N
1601484855.8,286046998.9,N
1601484875.6,286047000.6,N
1601484895.5,286046998.9,N
1601484915.3,286046998.3,N
1601484935.1,286047001.2,N
1601484955.9,286047000.9,N
1601484975.7,286046996.5,N
1601484995.6,286046997.1,N
1601485015.4,286047001.2,N
1601485035.2,286047002.3,N
1601485055.1,286047000.3,N
1601485056.0,286047000.3,N
1601485075.8,286046999.9,N
1601485095.7,286046995.2,N
1601485115.5,286046995.2,N
1601485135.3,286047000.7,N
1601485155.2,286047000.4,N
1601485175.0,286047000.5,N
1601485175.9,286047000.5,N
1601485195.8,286046998.1,N
